Location: Casteau
(50.5142°N, 4.0161°E)
Time: 21:07:07
(UTC+00:00)

Tiros 1 - Pass Details

Date: 02 August 2021
Orbit: 630 x 663 km, 48.4° (Epoch: 28 September)

Event Time Altitude Azimuth Distance (km) Brightness Sun altitude
Rises 21:52:21 0° 279° (W) 2,972 11.1 -17.2°
Reaches altitude 10° 21:54:47 10° 273° (W) 2,054 10.1 -17.4°
Maximum altitude 21:59:15 43° 202° (SSW) 902 7.6 -17.7°
Enters shadow 22:00:27 36° 164° (SSE) 1,024 7.6 -17.8°
Drops below altitude 10° 22:03:41 10° 131° (SE) 2,027 - -18.0°
Sets 22:06:04 0° 125° (SE) 2,929 - -18.2°
